Regional Weather Roundup
Issued by NWS Grand Forks, ND

Home | Current Version | Previous Version | Graphics & Text | Print | Product List | Glossary On
Versions: 1 2 3 4 5 6 7 8 9 10 11 12 13 14 15 16 17 18 19 20 21 22 23 24 25 26 27 28 29 30 31 32 33 34 35 36 37 38 39 40 41 42 43 44 45 46 47 48 49 50
000
ASUS43 KFGF 300631
RWRFGF
PRAIRIE TO PINES  WEATHER ROUNDUP
NATIONAL WEATHER SERVICE EASTERN NORTH DAKOTA/GRAND FORKS ND
100 AM CDT WED JUL 30 2014

 **SATELLITE DATA USED TO AUGMENT SKY COVER AT AUTOMATED STATIONS**
 *****  WEATHER ACROSS EASTERN NORTH DAKOTA  *****

CITY           SKY/WX    TMP DP  RH WIND       PRES   REMARKS
GRAND FORKS    CLEAR     57  54  89 W6        30.11R
6HR MIN TEMP:  57; 6HR MAX TEMP:  76;

GRAND FRKS AFB CLEAR     58  57  99 W2        30.12S
GRAND FRKS NWS   N/A     50 N/A N/A NW2         N/A
DEVILS LAKE    CLEAR     57  54  88 CALM      30.13S
6HR MIN TEMP:  57; 6HR MAX TEMP:  73;

FARGO          CLEAR     58  54  86 CALM      30.11S
WAHPETON ARPT  CLEAR     54  48  82 W3        30.12S
$$

 ***** WEATHER ACROSS CENTRAL AND WESTERN NORTH DAKOTA  *****

CITY           SKY/WX    TMP DP  RH WIND       PRES   REMARKS
BISMARCK       CLEAR     63  57  81 NE3       30.17R
6HR MIN TEMP:  60; 6HR MAX TEMP:  78;

MINOT          CLEAR     63  60  90 SW7       30.15S
6HR MIN TEMP:  60; 6HR MAX TEMP:  74;

JAMESTOWN      CLEAR     58  53  84 CALM      30.15R
6HR MIN TEMP:  58; 6HR MAX TEMP:  76;

MINOT AFB      CLOUDY    62  61  99 W3        30.15S
GARRISON         N/A     60  59  96 N3        30.17R
WILLISTON      CLEAR     61  57  87 N5        30.18R
6HR MIN TEMP:  61; 6HR MAX TEMP:  83;

DICKINSON      CLEAR     56  53  90 W5        30.17S
6HR MIN TEMP:  55; 6HR MAX TEMP:  79;

HETTINGER      PTCLDY    59  54  83 NE8       30.18R
6HR MIN TEMP:  59; 6HR MAX TEMP:  81;

$$

 *****  OTHER AIRPORT OBSERVATIONS IN OUR AREA  *****

CITY           SKY/WX    TMP DP  RH WIND       PRES   REMARKS
WALHALLA         N/A     54  54 100 SW3         N/A
GRAFTON AIRPOR FAIR      59  57  94 NW6       30.11R
VALLEY CITY AR FAIR      55  55 100 CALM      30.14S
CANDO          FAIR      55  55 100 N3        30.15S
CAVALIER APRT  FAIR      57  54  88 W3        30.11S
GWINNER        CLEAR     57  55  94 CALM      30.14S
SHEYENNE NWR     N/A     53  51  93 CALM      29.95
ROLLA          FAIR      50  50 100 W3        30.17S
 ***** THE ABOVE OBSERVATIONS ARE NON NWS ARE NOT QUALITY
       CONTROLLED AND MAY MIS-REPORT RAIN FOR SNOW...
$$

  *****  WEATHER ACROSS NORTHERN MINNESOTA  *****

CITY           SKY/WX    TMP DP  RH WIND       PRES   REMARKS
FLAG ISLAND    CLEAR     66  57  72 W8        30.05S
WARROAD        CLEAR     61  54  77 W7        30.08S
ROSEAU         CLEAR     61  55  82 W7        30.09R
HALLOCK        CLEAR     59  55  88 CALM      30.10S
THF RVR FALLS  CLEAR     61  55  82 CALM      30.11S
6HR MIN TEMP:  61; 6HR MAX TEMP:  73;

BAUDETTE       CLEAR     61  55  81 W3        30.07S
6HR MIN TEMP:  61; 6HR MAX TEMP:  75;

WASKISH        CLEAR     64  55  72 NW6       30.07S
CROOKSTON      CLEAR     57  55  94 NW3       30.11S
$$
  *****  WEATHER ACROSS CENTRAL AND WEST MINNESOTA  *****

CITY           SKY/WX    TMP DP  RH WIND       PRES   REMARKS
FOSSTON        CLEAR     52  48  87 CALM      30.11S
BEMIDJI        CLEAR     56  53  91 NW6       30.09S
PARK RAPIDS    CLEAR     55  53  93 W6        30.10S
6HR MIN TEMP:  55; 6HR MAX TEMP:  73;

ELBOW LAKE     FAIR      62  56  81 CALM      30.12S
WADENA         CLEAR     57  55  94 CALM      30.11S
DETROIT LAKES  CLEAR     61  55  82 NW3       30.13S
MOORHEAD       CLEAR     59  57  94 CALM      30.12S
FERGUS FALLS   CLEAR     61  54  77 CALM      30.12S
MORRIS MN      CLEAR     55  54  94 W5        30.11S
STAPLES        CLEAR     55  54  94 W5        30.10S
$$
  *****  WEATHER ELSEWHERE ACROSS MINNESOTA  *****

CITY           SKY/WX    TMP DP  RH WIND       PRES   REMARKS
DULUTH         CLEAR     57  53  86 N5        30.06S
6HR MIN TEMP:  56; 6HR MAX TEMP:  67; 6HR PCP:  0.24;

INTRNTL FALLS  PTCLDY    52  51  97 CALM      30.06S
6HR MIN TEMP:  52; 6HR MAX TEMP:  67; 6HR PCP: TRACE;

ELY            FOG       48  48 100 CALM      30.07S VSB 1
CLOQUET        PTCLDY    55  54  94 CALM      30.06S
WHEATON        CLEAR     57  55  94 CALM      30.14S
BRAINERD       CLEAR     63  55  75 NW5       30.09S
6HR MIN TEMP:  60; 6HR MAX TEMP:  73; 6HR PCP: TRACE;

HIBBING        PTCLDY    53  50  89 CALM      30.06F
6HR MIN TEMP:  52; 6HR MAX TEMP:  70;

ALEXANDRIA     CLEAR     61  55  81 N3        30.13S
6HR MIN TEMP:  61; 6HR MAX TEMP:  74;

SAINT CLOUD    CLEAR     61  54  77 CALM      30.08S
6HR MIN TEMP:  61; 6HR MAX TEMP:  77;

MINNEAPOLIS    PTCLDY    67  56  67 CALM      30.07R
6HR MIN TEMP:  67; 6HR MAX TEMP:  78;

$$

  *****  WEATHER ACROSS SOUTH DAKOTA  *****

CITY           SKY/WX    TMP DP  RH WIND       PRES   REMARKS
SIOUX FALLS    CLEAR     58  53  84 CALM      30.14S
6HR MIN TEMP:  57; 6HR MAX TEMP:  75; 6HR PCP: TRACE;

BROOKINGS      NOT AVBL
WATERTOWN      CLEAR     57  51  80 CALM      30.15S
6HR MIN TEMP:  56; 6HR MAX TEMP:  73;

HURON          CLEAR     55  53  93 CALM      30.15R
6HR MIN TEMP:  55; 6HR MAX TEMP:  77;

SISSETON         N/A     56  54  93 CALM      30.12S
ABERDEEN       CLEAR     52  51  97 W3        30.14S
6HR MIN TEMP:  52; 6HR MAX TEMP:  75;

MITCHELL       CLEAR     59  54  83 NW3       30.15R
PIERRE         PTCLDY    61  53  75 E5        30.14S
6HR MIN TEMP:  60; 6HR MAX TEMP:  81;

MOBRIDGE       PTCLDY    62  54  74 E8        30.13S
RAPID CITY     PTCLDY    59  51  75 W7        30.21S
6HR MIN TEMP:  59; 6HR MAX TEMP:  72;

$$

  *****  SOME WEATHER IN NEARBY STATES *****

CITY           SKY/WX    TMP DP  RH WIND       PRES   REMARKS
GLASGOW MT     CLEAR     66  50  56 SE8       30.17R
6HR MIN TEMP:  65; 6HR MAX TEMP:  90;

GREAT FALLS MT PTCLDY    69  43  38 CALM      30.15S
6HR MIN TEMP:  69; 6HR MAX TEMP:  91;

CHEYENNE WY    LGT RAIN  57  55  93 E14       30.33S
6HR MIN TEMP:  56; 6HR MAX TEMP:  59; 6HR PCP:  0.54;

SCOTTSBLUFF NE CLOUDY    65  63  93 NW3       30.26S
6HR MIN TEMP:  65; 6HR MAX TEMP:  72; 6HR PCP:  0.05;

OMAHA NE       PTCLDY    60  55  83 NW3       30.14R
6HR MIN TEMP:  60; 6HR MAX TEMP:  77;

DES MOINES IA  CLEAR     63  56  78 CALM      30.10S
6HR MIN TEMP:  63; 6HR MAX TEMP:  78;

DAVENPORT IA   CLEAR     60  56  86 N6        30.06S
6HR MIN TEMP:  58; 6HR MAX TEMP:  74;

CHICAGO IL     PTCLDY    61  55  81 W5        30.01S
6HR MIN TEMP:  61; 6HR MAX TEMP:  75; 6HR PCP:  0.01;

EAU CLAIRE WI  MOCLDY    59  57  93 SW3       30.04S
6HR MIN TEMP:  58; 6HR MAX TEMP:  71; 6HR PCP:  0.01;

LA CROSSE WI   CLEAR     63  60  90 E3        30.04F
6HR MIN TEMP:  63; 6HR MAX TEMP:  72; 6HR PCP:  0.56;

$$

  *****  SOME NATIONAL WEATHER *****

CITY           SKY/WX    TMP DP  RH WIND       PRES   REMARKS
LA GUARDIA NY  CLOUDY    69  53  56 W7        29.97F
6HR MIN TEMP:  69; 6HR MAX TEMP:  73;

RALEIGH NC     PTCLDY    68  59  73 CALM      29.99F
6HR MIN TEMP:  66; 6HR MAX TEMP:  74;

ATLANTA GA     CLEAR     65  53  65 NW7       30.03S
6HR MIN TEMP:  65; 6HR MAX TEMP:  77;

NEW ORLEANS LA PTCLDY    81  66  60 NE16      30.05R
6HR MIN TEMP:  77; 6HR MAX TEMP:  86;

OKLAHOMA CITY  CLOUDY    72  66  81 E5        30.09F
6HR MIN TEMP:  72; 6HR MAX TEMP:  78; 6HR PCP:  0.01;

ALBUQUERQUE NM CLOUDY    69  59  70 SE8       30.22F
6HR MIN TEMP:  67; 6HR MAX TEMP:  76; 6HR PCP:  0.27;

SALT LAKE CITY CLOUDY    70  61  73 NE5       30.16S
6HR MIN TEMP:  70; 6HR MAX TEMP:  76; 6HR PCP: TRACE;

LOS ANGELES CA MOCLDY    70  64  83 VRB6      29.97S
6HR MIN TEMP:  69; 6HR MAX TEMP:  74;

BOISE ID       MOCLDY    78  54  43 SE17      30.13R



USA.gov is the U.S. government's official web portal to all federal, state and local government web resources and services.